AirNav   Pilot Hours Calculator
 
 644 users online  

NH60 Huff Memorial Airport
New Boston, New Hampshire, USA

GOING TO NEW BOSTON?


FAA INFORMATION EFFECTIVE 08 OCTOBER 2020

Location

FAA Identifier: NH60
Lat/Long: 42-57-38.3020N 071-39-12.2600W
42-57.638367N 071-39.204333W
42.9606394,-71.6534056
(estimated)
Elevation: 840 ft. / 256 m (estimated)
Variation: 16W (1985)
From city: 3 miles SE of NEW BOSTON, NH
Time zone: UTC -4 (UTC -5 during Standard Time)
Zip code: 03070

Airport Operations

Airport use: Private use, PERSONAL USE.
Activation date: 12/1990
Control tower: no
ARTCC: BOSTON CENTER
FSS: BANGOR FLIGHT SERVICE STATION
Attendance: UNATNDD
Segmented circle: no

Airport Communications

WX ASOS at MHT (10 nm E): 119.55 (603-621-1766)
WX AWOS-3PT at ASH (12 nm SE): 125.1 (603-578-0473)
WX ASOS at CON (16 nm NE): 132.325 (603-224-6558)
WX ASOS at AFN (18 nm SW): 135.875 (603-532-6195)

Nearby radio navigation aids

VOR radial/distance  VOR name  Freq  Var
MHTr309/13.6MANCHESTER VOR/DME114.4015W
CONr207/15.9CONCORD VOR/DME112.9015W
LWMr313/27.9LAWRENCE VOR/DME112.5015W
EENr084/29.8KEENE VORTAC109.4014W
GDMr050/30.6GARDNER VOR/DME110.6014W
PSMr274/36.8PEASE VOR/DME116.5016W

 
NDB name  Hdg/Dist  Freq  Var  ID
FITZY332/8.020915WMJ -- .---
EPSOM239/12.921616WCO -.-. ---
ROLLINS263/39.426016WESG . ... --.
CLAREMONT144/39.823316WCNH -.-. -. ....

Airport Services

Runway Information

Runway 16/34

Dimensions: 940 x 100 ft. / 287 x 30 m
Surface: turf
RUNWAY 16  RUNWAY 34
Traffic pattern: leftleft
Obstructions: 15 ft. bldg, 450 ft. from runwaynone

Airport Ownership and Management from official FAA records

Ownership: Privately-owned
Owner: DAVID KENT
55 LAUREL LANE
NEW BOSTON, NH 03070
Phone 617-230-1581
Manager: DAVID KENT
55 LAUREL LANE
NEW BOSTON, NH 03070
Phone 617-230-1581

Additional Remarks

FOR CD CTC BOSTON APCH AT 603-594-5551.

Instrument Procedures

There are no published instrument procedures at NH60.

Some nearby airports with instrument procedures:

KMHT - Manchester Airport (10 nm E)
KASH - Boire Field Airport (12 nm SE)
KCON - Concord Municipal Airport (16 nm NE)
KAFN - Jaffrey Airport-Silver Ranch (18 nm SW)
KFIT - Fitchburg Municipal Airport (25 nm S)
 
Loc | Ops | Rwys | IFR | FBO | Links
Com | Nav | Svcs | Stats | Notes
Area around NH60 (Huff Memorial Airport)
 
Road maps at: MapQuest Bing Google
 
Aerial photo
WARNING: Photo may not be current or correct
Aerial photo of NH60 (Huff Memorial Airport)
Taken in the Winter of 2019

Do you have a better or more recent aerial photo of Huff Memorial Airport that you would like to share? If so, please send us your photo.

 
Sectional chart

 
Airport distance calculator
Flying to Huff Memorial Airport? Find the distance to fly.

From to NH60

Sunrise and sunset
Times for 24-Oct-2020
 Local
(UTC-4)
 Zulu
(UTC)
Morning civil twilight06:4410:44
Sunrise07:1311:13
Sunset17:4821:48
Evening civil twilight18:1722:17

Current date and time
Zulu (UTC)  24-Oct-2020 11:57:14
Local (UTC-4)  24-Oct-2020 07:57:14
 
METAR
KMHT 
10nm E 
241153Z 17004KT 10SM OVC006 13/11 A2991 RMK AO2 SLP140 T01330111 10139 20128 58013
KASH 
13nm SE 
241056Z 14003KT 10SM OVC005 13/13 A2995 RMK AO2 SLP146 T01280128
KCON 
16nm NE 
241151Z AUTO 15006KT 7SM OVC005 12/12 A2991 RMK AO2 SLP130 T01220117 10128 20122 58013 $
KAFN 
18nm SW 
241152Z AUTO 21004KT 10SM OVC008 14/13 A2992 RMK AO2 SLP136 T01440128 10150 20139 58013
TAF
KMHT 
10nm E 
240521Z 2406/2506 VRB03KT 6SM BR OVC006 FM241300 27005KT P6SM BKN015 FM241600 30006KT P6SM BKN050
KCON 
16nm NE 
240521Z 2406/2506 VRB03KT P6SM OVC007 FM240800 00000KT 3SM BR OVC005 FM241200 00000KT P6SM OVC008 FM241500 VRB04KT P6SM BKN025 FM241700 30005KT P6SM BKN050
NOTAMs
Click for the latest NOTAMs
NOTAMs are issued by the DoD/FAA and will open in a separate window not controlled by AirNav.

 

 
 

Would you like to see your business listed on this page?

 If your business provides an interesting product or service to pilots, flight crews, aircraft, or users of the Huff Memorial Airport, you should consider listing it here.  To start the listing process, click on the button below
 
Add a business
 

Other Pages about Huff Memorial Airport

Update a link
 
Copyright © AirNav, LLC. All rights reserved. Privacy Policy  Contact